Погода в Зорголе

Россия / Забайкальский край     50°36′20″N   119°16′14″E
темп.,
°C
ветер,
м/с
пор.,
м/с
влажн.,
%
обл.,
%
осадки,
мм/ч
давл.,
гПа
погр.,
м
13 июня, вс
вс1300:00+18с226185 0.1 100627
03:00+15с22685 0.1 100616
06:00+14в11715 0.0 100610
09:00+20в1254100 0.0 1006388
12:00+25в33457 0.0 1005892
15:00+28ююв25367 0.0 10022118
18:00+29ю253685 0.0 10002463
21:00+23всв3356100 0.0 100025
14 июня, пн
пн1400:00+21вюв3355100 0.0 100150
03:00+18вюв2271100 0.6 100124
06:00+18вюв1180100 1.4 100124
09:00+18св2284100 2.1 100166
12:00+21ююз1272100 0.8 1000161
15:00+20зюз3574100 3.0 999470
18:00+16всв2294100 2.7 100097
21:00+16с2495100 2.8 1000131
15 июня, вт
вт1500:00+16ссв2397100 1.1 1001119
03:00+15сз2396100 1.3 100097
06:00+14сз2395100 0.0 100195
09:00+18сз237260 0.0 1001485
12:00+23зсз3548100 0.0 10011448
15:00+24зсз77391 0.0 10001979
18:00+23з5740100 0.0 10001413
21:00+17зсз225763 0.0 100318
16 июня, ср
ср1600:00+15зсз2354100 0.0 100456
03:00+14сз2357100 0.0 100535
06:00+13сз1159100 0.0 100715
09:00+14зсз3548100 0.0 1008555
12:00+16сз3332100 0.0 10071045
15:00+17зюз2231100 0.0 10061378
18:00+17ю2236100 0.0 10041039
21:00+12ююв3658100 0.0 1004193
17 июня, чт
чт1700:00+11в1166100 0.0 100238
03:00+9ссв3886100 1.3 1001458
06:00+8с61293100 7.9 9981123
09:00+7ссз111792100 15.3 9931034
12:00+7сз111793100 11.2 9881174
15:00+8зсз101596100 22.3 982710
18:00+11ссз4993100 6.0 976526
21:00+8св71295100 6.4 979649